Regional Weather Roundup
Issued by NWS

Home | Current Version | Previous Version | Graphics & Text | Print | Product List | Glossary Off
Versions: 1 2 3 4 5 6 7 8 9 10 11 12 13 14 15 16 17 18 19 20 21 22 23 24 25 26 27 28 29 30 31 32 33 34 35 36 37 38 39 40 41 42 43 44 45 46 47 48 49 50

000
ASUS43 KMKX 061611
RWRWI

WISCONSIN REGIONAL WEATHER ROUNDUP
NATIONAL WEATHER SERVICE MILWAUKEE/SULLIVAN WI
1100 AM CDT WED MAY 06 2015

NOTE: "FAIR" INDICATES FEW OR NO CLOUDS BELOW 12,000 FEET WITH NO
SIGNIFICANT WEATHER AND/OR OBSTRUCTIONS TO VISIBILITY.

WIZ001-002-006>008-014>016-023>028-061700-
NORTHWEST WISCONSIN

CITY           SKY/WX    TMP DP  RH WIND       PRES   REMARKS
SUPERIOR ARPT  CLOUDY    44  38  79 NE8       30.11F
ASHLAND        LGT RAIN  53  52  96 CALM      30.14S FOG
HAYWARD        CLOUDY    58  50  75 E9        30.11F
SIREN          CLOUDY    59  52  78 SE8       30.08S
CUMBERLAND     CLOUDY    54  52  94 SE14      30.10S FOG
RICE LAKE      CLOUDY    56  52  84 SE10      30.13R
CHETEK         CLOUDY    56  53  88 SE10      30.12R
LADYSMITH      CLOUDY    56  52  89 E10       30.15S
EAU CLAIRE     CLOUDY    58  52  80 SE7       30.11S
MENOMONIE      CLOUDY    58  54  86 SE13      30.11S FOG
NEW RICHMOND   CLOUDY    58  56  94 E13       30.06F FOG
OSCEOLA        CLOUDY    58  58 100 E9        30.08F FOG
$$

WIZ003>005-009-010-017-018-061700-
NORTH CENTRAL WISCONSIN

CITY           SKY/WX    TMP DP  RH WIND       PRES   REMARKS
MANITOWISH WTR RAIN      49  48  97 SE8       30.18
ARBOR VITAE    CLOUDY    52  49  90 SE5       30.19R
WOODRUFF       CLOUDY    52  49  90 SE5       30.19R
RHINELANDER    LGT RAIN  54  49  83 SE7       30.19F
EAGLE RIVER    CLOUDY    53  41  64 SE7       30.19F
LAND O LAKES   CLOUDY    54  43  66 SE3       30.20S
PHILLIPS       CLOUDY    51  50  96 E8        30.15F
TOMAHAWK       LGT RAIN  50  48  92 CALM      30.18S
MEDFORD        PTSUNNY   56  52  85 E8        30.15S
MERRILL        CLOUDY    51  51 100 E7        30.19S
$$

WIZ029-030-035-036-043>047-061700-
CENTRAL WISCONSIN

CITY           SKY/WX    TMP DP  RH WIND       PRES   REMARKS
WAUSAU         CLOUDY    56  50  80 SE8       30.16S
MOSINEE        CLOUDY    57  54  88 E6        30.17F
MARSHFIELD     PTSUNNY   63  52  67 SE10      30.15S
STEVENS POINT  PTSUNNY   57  50  79 E9        30.17F
WAUPACA        PTSUNNY   64  52  65 E7        30.18S
WAUTOMA        PTSUNNY   59  55  86 E8        30.18S
WISC RAPIDS    MOSUNNY   64  52  64 VRB7      30.17S
CAMP DOUGLAS   LGT RAIN  55  55 100 E6        30.13F
$$

WIZ011>013-019>022-031-037>040-048>050-061700-
NORTHEAST WISCONSIN

CITY           SKY/WX    TMP DP  RH WIND       PRES   REMARKS
ANTIGO         CLOUDY    51  50  97 E6        30.20S
SHAWANO        LGT RAIN  55  51  86 E6        30.21F
OCONTO         CLOUDY    53  48  81 SE5       30.22S
STURGEON BAY   CLOUDY    52  43  71 SE6       30.25S
GREEN BAY      CLOUDY    56  50  80 NE6       30.22R
MANITOWOC      LGT RAIN  48  47  96 SE5       30.23S VSB 1/4
APPLETON       LGT RAIN  57  48  72 CALM      30.20S
CLINTONVILLE   CLOUDY    52  50  93 SE7       30.20F
OSHKOSH        PTSUNNY   59  52  77 E8        30.19F
$$

WIZ032>034-041-042-053>061-061700-
SOUTHWEST WISCONSIN

CITY           SKY/WX    TMP DP  RH WIND       PRES   REMARKS
LA CROSSE      CLOUDY    62  56  80 E5        30.10F
SPARTA         PTSUNNY   60  56  86 E3        30.12F
VIROQUA        CLOUDY    59  59 100 SE8       30.12S
BOSCOBEL       PTSUNNY   65  58  78 VRB3      30.12F
PRAIRIE DU CHI PTSUNNY   62  56  81 E9        30.10F
PLATTEVILLE    CLOUDY    60  58  94 E12       30.13F
$$

WIZ056-057-062-063-064-067-068-061700-
SOUTH CENTRAL WISCONSIN

CITY           SKY/WX    TMP DP  RH WIND       PRES   REMARKS
REEDSBURG      CLOUDY    60  56  87 CALM      30.15S
BARABOO/DELLS  NOT AVBL
LONE ROCK      CLOUDY    60  56  86 E10       30.14F
MINERAL POINT  PTSUNNY   61  57  88 SE7       30.14S FOG
MADISON        CLOUDY    56  54  93 S6        30.17S FOG
MIDDLETON      CLOUDY    57  56  97 E7        30.16F
WATERTOWN      CLOUDY    58  57  97 SE7       30.19S FOG
MONROE         CLOUDY    55  55 100 E7        30.15S FOG
JANESVILLE     CLOUDY    63  57  82 E8        30.15F FOG
$$

WIZ051-052-058>065-066-070>072-061700-
SOUTHEAST WISCONSIN

CITY           SKY/WX    TMP DP  RH WIND       PRES   REMARKS
MILWAUKEE      PTSUNNY   50  45  83 NE6       30.21S
WAUKESHA       TSTM      54  52  94 E8        30.20S
MILWAUKEE/TIMM RAIN      52  46  82 CALM      30.21S
RACINE         CLOUDY    53  49  86 NE8       30.21S
BURLINGTON     PTSUNNY   59  55  85 E6        30.18F
KENOSHA        PTSUNNY   56  54  93 E8        30.19S
FOND DU LAC    MOSUNNY   61  54  77 SE8       30.19S
SHEBOYGAN      CLOUDY    52  51  97 S9        30.22S FOG
WEST BEND      CLOUDY    52  50  93 E8        30.21S
JUNEAU         CLOUDY    57  55  91 E9        30.19S
$$

LSZ147-162-061700-
LAKE SUPERIOR

STATION/POSITION TIME  TEMP    WIND        PRES    WAVE
                       AIR SEA DIR/SP/G            HT/PER
                 (UTC) (F)     (DEG/KT/KT) (MB)    (FT/S)
W MID LAKE BUOY  1550   40 36   90/  6/  6 1022.2F   0
DEVILS ISLAND    1600   49     100/  6/  7 1021.1F
PORT WING        1526   41      40/  4     1020.3S
SAXON HARBOR     1540   58     180/  1/  9 1020.7R
$$

LMZ867-665-643>646-061700-
LAKE MICHIGAN

STATION/POSITION TIME  TEMP    WIND        PRES    WAVE
                       AIR SEA DIR/SP/G            HT/PER
                 (UTC) (F)     (DEG/KT/KT) (MB)    (FT/S)
CHAMBERS ISLAND  1500   50      30/  4/  4 1023.7F
NORTHPORT PIER   1500   46     140/  5/  7 1024.0S
SISTER BAY       1547   60     150/  9/ 10   N/A
KEWAUNEE LAKESHO 1500           70/  2/  5 1023.0F
SHEBOYGAN LAKESH 1600   44     100/  3/  3 1024.1F
PORT WASHINGTON  1500   46      50/  3/  5 1024.0
ATWATER BUOY     1500   43      60/  4/  6 1024.2S
MILWAUKEE LAKESH 1500   43      50/  6/  7   N/A
KENOSHA   LAKESH 1600   44      30/  6/  6 1022.7S
$$

TC  - TEMPERATURE IN CELSIUS
VSB - VISIBILITY IN STATUTE MILES
WCI - WIND CHILL INDEX
HX  - HEAT INDEX




USA.gov is the U.S. government's official web portal to all federal, state and local government web resources and services.